Location: Conjunto Santa Maria
(19.9513°S, 43.9599°W)
Time: 12:31:46
(UTC+00:00)

Cosmos 405 - Pass Details

Date: 21 January 2021
Orbit: 448 x 462 km, 81.3° (Epoch: 03 March)

Event Time Altitude Azimuth Distance (km) Brightness Sun altitude
Exits shadow 22:31:09 17° 47° (NE) 1,234 4.5 -11.6°
Maximum altitude 22:32:51 24° 87° (E) 990 4.1 -12.0°
Drops below altitude 10° 22:35:43 10° 142° (SE) 1,604 5.6 -12.6°
Sets 22:38:03 0° 156° (SSE) 2,482 6.7 -13.1°
